"read_dt","SO2 (ppb)","flags","PMT voltage (V)","lamp voltage (V)","lamp intensity (Hz)","internal temp (C)","react chamber temp (C)","sample flow (l/min)","pres (mmHg)","SO2 bkg (ppb)","SO2 coefficient"
2017-02-19 00:00:00,1582E-3,5C000400,-0724,0838,11937,030.1,045.5,0.218,750.7,01.17,0.508
2017-02-19 00:01:00,1639E-3,5C000400,-0724,0839,11930,030.1,045.5,0.217,750.7,01.17,0.508
2017-02-19 00:02:00,1532E-3,5C000400,-0724,0839,12089,030.1,045.5,0.217,750.7,01.17,0.508
2017-02-19 00:03:00,1708E-3,5C000400,-0724,0839,11957,030.1,045.5,0.218,750.7,01.17,0.508
2017-02-19 00:04:00,1626E-3,5C000400,-0724,0840,12070,030.1,045.5,0.217,750.6,01.17,0.508
2017-02-19 00:05:00,1663E-3,5C000400,-0724,0839,11981,030.1,045.5,0.217,750.6,01.17,0.508
2017-02-19 00:06:00,1688E-3,5C000400,-0724,0839,12000,030.1,045.5,0.217,750.6,01.17,0.508
2017-02-19 00:07:00,1569E-3,5C000400,-0724,0839,12096,030.1,045.5,0.217,750.6,01.17,0.508
2017-02-19 00:08:00,1591E-3,5C000400,-0724,0839,11955,030.1,045.5,0.217,750.6,01.17,0.508
2017-02-19 00:09:00,1686E-3,5C000400,-0724,0840,11965,030.1,045.5,0.217,750.7,01.17,0.508
2017-02-19 00:10:00,1722E-3,5C000400,-0724,0839,12004,030.1,045.5,0.217,750.6,01.17,0.508
2017-02-19 00:11:00,1571E-3,5C000400,-0724,0839,12198,030.1,045.5,0.218,750.6,01.17,0.508
2017-02-19 00:12:00,1684E-3,5C000400,-0724,0839,12110,030.1,045.5,0.217,750.6,01.17,0.508
2017-02-19 00:13:00,1624E-3,5C000400,-0724,0840,12067,030.1,045.5,0.217,750.6,01.17,0.508
2017-02-19 00:14:00,1599E-3,5C000400,-0724,0839,12091,030.1,045.5,0.218,750.6,01.17,0.508
2017-02-19 00:15:00,1558E-3,5C000400,-0724,0839,12071,030.1,045.5,0.217,750.6,01.17,0.508
2017-02-19 00:16:00,1565E-3,5C000400,-0724,0839,12117,030.1,045.5,0.217,750.6,01.17,0.508
2017-02-19 00:17:00,1580E-3,5C000400,-0724,0839,12111,030.1,045.5,0.217,750.7,01.17,0.508
2017-02-19 00:18:00,1679E-3,5C000400,-0724,0840,11812,030.1,045.5,0.217,750.7,01.17,0.508
2017-02-19 00:19:00,1647E-3,5C000400,-0724,0839,12058,030.1,045.5,0.218,750.6,01.17,0.508
2017-02-19 00:20:00,1664E-3,5C000400,-0724,0839,11970,030.1,045.5,0.217,750.6,01.17,0.508
2017-02-19 00:21:00,1649E-3,5C000400,-0724,0839,12164,030.1,045.5,0.217,750.7,01.17,0.508
2017-02-19 00:22:00,1661E-3,5C000400,-0724,0839,11979,030.1,045.5,0.217,750.7,01.17,0.508
2017-02-19 00:23:00,1747E-3,5C000400,-0724,0839,12089,030.1,045.5,0.217,750.6,01.17,0.508
2017-02-19 00:24:00,1713E-3,5C000400,-0724,0839,12057,030.1,045.5,0.217,750.7,01.17,0.508
2017-02-19 00:25:00,1684E-3,5C000400,-0724,0839,11962,030.1,045.5,0.217,750.6,01.17,0.508
2017-02-19 00:26:00,1613E-3,5C000400,-0724,0839,12023,030.1,045.5,0.217,750.6,01.17,0.508
2017-02-19 00:27:00,1502E-3,5C000400,-0724,0840,12082,030.1,045.5,0.218,750.6,01.17,0.508
2017-02-19 00:28:00,1605E-3,5C000400,-0724,0839,12038,030.1,045.5,0.217,750.6,01.17,0.508
2017-02-19 00:29:00,1752E-3,5C000400,-0724,0839,12058,030.1,045.5,0.217,750.6,01.17,0.508
2017-02-19 00:30:00,1619E-3,5C000400,-0724,0840,12082,030.1,045.5,0.217,750.6,01.17,0.508
2017-02-19 00:31:00,1634E-3,5C000400,-0724,0839,12042,030.1,045.5,0.217,750.6,01.17,0.508
2017-02-19 00:32:00,1609E-3,5C000400,-0724,0839,12010,030.1,045.5,0.218,750.5,01.17,0.508
2017-02-19 00:33:00,1574E-3,5C000400,-0724,0840,12103,030.1,045.5,0.217,750.6,01.17,0.508
2017-02-19 00:34:00,1724E-3,5C000400,-0724,0839,12146,030.1,045.5,0.217,750.6,01.17,0.508
2017-02-19 00:35:00,1502E-3,5C000400,-0724,0839,12144,030.1,045.5,0.218,750.5,01.17,0.508
2017-02-19 00:36:00,1604E-3,5C000400,-0724,0839,11966,030.1,045.5,0.218,750.5,01.17,0.508
2017-02-19 00:37:00,1714E-3,5C000400,-0724,0840,12112,030.1,045.5,0.218,750.5,01.17,0.508
2017-02-19 00:38:00,1684E-3,5C000400,-0724,0839,11976,030.1,045.5,0.217,750.6,01.17,0.508
2017-02-19 00:39:00,1628E-3,5C000400,-0724,0839,12097,030.1,045.5,0.218,750.6,01.17,0.508
2017-02-19 00:40:00,1573E-3,5C000400,-0724,0839,12087,030.1,045.5,0.217,750.6,01.17,0.508
2017-02-19 00:41:00,1584E-3,5C000400,-0724,0839,12074,030.1,045.5,0.217,750.6,01.17,0.508
2017-02-19 00:42:00,1687E-3,5C000400,-0724,0840,11843,030.1,045.5,0.217,750.6,01.17,0.508
2017-02-19 00:43:00,1647E-3,5C000400,-0724,0839,12016,030.1,045.5,0.217,750.6,01.17,0.508
2017-02-19 00:44:00,1652E-3,5C000400,-0724,0839,12159,030.1,045.5,0.217,750.6,01.17,0.508
2017-02-19 00:45:00,1685E-3,5C000400,-0724,0839,12129,030.1,045.5,0.217,750.6,01.17,0.508
2017-02-19 00:46:00,1636E-3,5C000400,-0724,0840,12015,030.1,045.5,0.217,750.6,01.17,0.508
2017-02-19 00:47:00,1653E-3,5C000400,-0724,0839,12158,030.1,045.5,0.217,750.6,01.17,0.508
2017-02-19 00:48:00,1648E-3,5C000400,-0724,0841,12069,030.1,045.5,0.217,750.6,01.17,0.508
2017-02-19 00:49:00,1648E-3,5C000400,-0724,0839,11995,030.1,045.5,0.217,750.6,01.17,0.508
2017-02-19 00:50:00,1684E-3,5C000400,-0724,0839,11936,030.2,045.5,0.217,750.4,01.17,0.508
2017-02-19 00:51:00,1625E-3,5C000400,-0724,0839,12010,030.1,045.5,0.217,750.5,01.17,0.508
2017-02-19 00:52:00,1682E-3,5C000400,-0724,0839,11999,030.2,045.5,0.218,750.4,01.17,0.508
2017-02-19 00:53:00,1629E-3,5C000400,-0724,0839,11997,030.1,045.5,0.217,750.5,01.17,0.508
2017-02-19 00:54:00,1597E-3,5C000400,-0724,0839,12040,030.1,045.5,0.217,750.5,01.17,0.508
2017-02-19 00:55:00,1754E-3,5C000400,-0724,0839,12117,030.1,045.5,0.217,750.5,01.17,0.508
2017-02-19 00:56:00,1673E-3,5C000400,-0724,0839,11966,030.1,045.5,0.217,750.5,01.17,0.508
2017-02-19 00:57:00,1792E-3,5C000400,-0724,0839,12113,030.1,045.5,0.217,750.4,01.17,0.508
2017-02-19 00:58:00,1726E-3,5C000400,-0724,0840,12038,030.1,045.5,0.217,750.5,01.17,0.508
2017-02-19 00:59:00,1662E-3,5C000400,-0724,0839,11999,030.1,045.5,0.217,750.5,01.17,0.508
2017-02-19 01:00:00,1747E-3,5C000400,-0724,0839,12144,030.1,045.5,0.217,750.5,01.17,0.508
2017-02-19 01:01:00,1716E-3,5C000400,-0724,0838,11976,030.1,045.5,0.217,750.5,01.17,0.508
2017-02-19 01:02:00,1615E-3,5C000400,-0724,0839,12063,030.2,045.5,0.217,750.4,01.17,0.508
2017-02-19 01:03:00,1697E-3,5C000400,-0724,0839,12106,030.1,045.5,0.217,750.4,01.17,0.508
2017-02-19 01:04:00,1667E-3,5C000400,-0724,0840,11924,030.1,045.5,0.217,750.4,01.17,0.508
2017-02-19 01:05:00,1646E-3,5C000400,-0724,0839,11951,030.1,045.5,0.217,750.4,01.17,0.508
2017-02-19 01:06:00,1749E-3,5C000400,-0724,0839,12069,030.1,045.5,0.217,750.4,01.17,0.508
2017-02-19 01:07:00,1722E-3,5C000400,-0724,0840,11941,030.1,045.5,0.217,750.4,01.17,0.508
2017-02-19 01:08:00,1610E-3,5C000400,-0724,0839,12009,030.1,045.5,0.217,750.5,01.17,0.508
2017-02-19 01:09:00,1605E-3,5C000400,-0724,0840,12112,030.1,045.5,0.217,750.4,01.17,0.508
2017-02-19 01:10:00,1583E-3,5C000400,-0724,0839,11977,030.1,045.5,0.217,750.5,01.17,0.508
2017-02-19 01:11:00,1712E-3,5C000400,-0724,0839,11941,030.1,045.5,0.217,750.4,01.17,0.508
2017-02-19 01:12:00,1671E-3,5C000400,-0724,0839,12106,030.1,045.5,0.217,750.5,01.17,0.508
2017-02-19 01:13:00,1382E-3,5C000400,-0724,0840,11982,030.1,045.5,0.217,750.5,01.17,0.508
2017-02-19 01:14:00,1667E-3,5C000400,-0724,0840,12049,030.1,045.5,0.217,750.4,01.17,0.508
2017-02-19 01:15:00,1606E-3,5C000400,-0724,0839,12051,030.1,045.5,0.217,750.4,01.17,0.508
2017-02-19 01:16:00,1662E-3,5C000400,-0724,0839,12112,030.1,045.5,0.217,750.5,01.17,0.508
2017-02-19 01:17:00,1669E-3,5C000400,-0724,0839,12057,030.1,045.5,0.217,750.4,01.17,0.508
2017-02-19 01:18:00,1631E-3,5C000400,-0724,0839,11902,030.1,045.5,0.218,750.4,01.17,0.508
2017-02-19 01:19:00,1684E-3,5C000400,-0724,0839,11962,030.1,045.5,0.217,750.4,01.17,0.508
2017-02-19 01:20:00,1652E-3,5C000400,-0724,0839,12024,030.1,045.5,0.217,750.4,01.17,0.508
2017-02-19 01:21:00,1503E-3,5C000400,-0724,0840,12013,030.1,045.5,0.217,750.5,01.17,0.508
2017-02-19 01:22:00,1670E-3,5C000400,-0724,0840,12069,030.1,045.5,0.217,750.4,01.17,0.508
2017-02-19 01:23:00,1636E-3,5C000400,-0724,0839,11938,030.1,045.5,0.217,750.4,01.17,0.508
2017-02-19 01:24:00,1670E-3,5C000400,-0724,0839,11973,030.1,045.5,0.217,750.4,01.17,0.508
2017-02-19 01:25:00,1595E-3,5C000400,-0724,0840,12002,030.1,045.5,0.217,750.4,01.17,0.508
2017-02-19 01:26:00,1631E-3,5C000400,-0724,0838,12112,030.1,045.5,0.217,750.4,01.17,0.508
2017-02-19 01:27:00,1693E-3,5C000400,-0724,0840,11987,030.1,045.5,0.217,750.4,01.17,0.508
2017-02-19 01:28:00,1616E-3,5C000400,-0724,0840,11992,030.1,045.5,0.217,750.4,01.17,0.508
2017-02-19 01:29:00,1643E-3,5C000400,-0724,0840,11950,030.1,045.5,0.217,750.5,01.17,0.508
2017-02-19 01:30:00,1622E-3,5C000400,-0724,0839,12044,030.1,045.5,0.217,750.4,01.17,0.508
2017-02-19 01:31:00,1605E-3,5C000400,-0724,0839,12024,030.1,045.5,0.217,750.5,01.17,0.508
2017-02-19 01:32:00,1648E-3,5C000400,-0724,0838,12063,030.1,045.5,0.217,750.5,01.17,0.508
2017-02-19 01:33:00,1657E-3,5C000400,-0724,0839,12203,030.1,045.5,0.217,750.5,01.17,0.508
2017-02-19 01:34:00,1675E-3,5C000400,-0724,0838,12050,030.1,045.5,0.217,750.4,01.17,0.508
2017-02-19 01:35:00,1607E-3,5C000400,-0724,0840,12024,030.1,045.5,0.218,750.3,01.17,0.508
2017-02-19 01:36:00,1621E-3,5C000400,-0724,0839,11857,030.1,045.5,0.218,750.4,01.17,0.508
2017-02-19 01:37:00,1687E-3,5C000400,-0724,0839,12206,030.1,045.5,0.218,750.4,01.17,0.508
2017-02-19 01:38:00,1566E-3,5C000400,-0724,0839,11962,030.1,045.5,0.217,750.6,01.17,0.508
2017-02-19 01:39:00,1572E-3,5C000400,-0724,0839,12035,030.1,045.5,0.217,750.6,01.17,0.508
2017-02-19 01:40:00,1793E-3,5C000400,-0724,0839,12206,030.1,045.5,0.217,750.6,01.17,0.508
2017-02-19 01:41:00,1716E-3,5C000400,-0724,0839,12122,030.1,045.5,0.217,750.6,01.17,0.508
2017-02-19 01:42:00,1683E-3,5C000400,-0724,0840,12035,030.1,045.5,0.217,750.6,01.17,0.508
2017-02-19 01:43:00,1655E-3,5C000400,-0724,0839,12123,030.1,045.5,0.218,750.7,01.17,0.508
2017-02-19 01:44:00,1735E-3,5C000400,-0724,0840,12054,030.1,045.5,0.217,750.6,01.17,0.508
2017-02-19 01:45:00,1651E-3,5C000400,-0724,0839,12072,030.1,045.5,0.217,750.6,01.17,0.508
2017-02-19 01:46:00,1714E-3,5C000400,-0724,0839,12029,030.1,045.5,0.217,750.5,01.17,0.508
2017-02-19 01:47:00,1690E-3,5C000400,-0724,0840,12079,030.1,045.5,0.217,750.5,01.17,0.508
2017-02-19 01:48:00,1603E-3,5C000400,-0724,0839,11982,030.1,045.5,0.217,750.5,01.17,0.508
2017-02-19 01:49:00,1630E-3,5C000400,-0724,0839,11933,030.1,045.5,0.217,750.5,01.17,0.508
2017-02-19 01:50:00,1683E-3,5C000400,-0724,0839,11985,030.1,045.5,0.217,750.5,01.17,0.508
2017-02-19 01:51:00,1610E-3,5C000400,-0724,0839,12138,030.1,045.5,0.217,750.4,01.17,0.508
2017-02-19 01:52:00,1574E-3,5C000400,-0724,0839,11980,030.1,045.5,0.217,750.4,01.17,0.508
2017-02-19 01:53:00,1694E-3,5C000400,-0724,0839,12109,030.1,045.5,0.217,750.4,01.17,0.508
2017-02-19 01:54:00,1548E-3,5C000400,-0724,0839,11987,030.1,045.5,0.217,750.4,01.17,0.508
2017-02-19 01:55:00,1554E-3,5C000400,-0724,0840,12119,030.1,045.5,0.217,750.4,01.17,0.508
2017-02-19 01:56:00,1705E-3,5C000400,-0724,0840,11925,030.1,045.5,0.218,750.4,01.17,0.508
2017-02-19 01:57:00,1720E-3,5C000400,-0724,0840,12070,030.1,045.5,0.217,750.4,01.17,0.508
2017-02-19 01:58:00,1641E-3,5C000400,-0724,0840,11946,030.1,045.5,0.218,750.5,01.17,0.508
2017-02-19 01:59:00,1622E-3,5C000400,-0724,0840,12115,030.1,045.5,0.217,750.4,01.17,0.508
2017-02-19 02:00:00,1663E-3,5C000400,-0724,0839,12019,030.1,045.5,0.217,750.4,01.17,0.508
2017-02-19 02:01:00,1644E-3,5C000400,-0724,0839,12174,030.1,045.5,0.217,750.4,01.17,0.508
2017-02-19 02:02:00,1624E-3,5C000400,-0724,0839,12176,030.1,045.5,0.217,750.5,01.17,0.508
2017-02-19 02:03:00,1595E-3,5C000400,-0724,0839,12041,030.1,045.5,0.217,750.5,01.17,0.508
2017-02-19 02:04:00,1734E-3,5C000400,-0724,0839,12077,030.1,045.5,0.217,750.5,01.17,0.508
2017-02-19 02:05:00,1576E-3,5C000400,-0724,0839,11989,030.1,045.5,0.217,750.5,01.17,0.508
2017-02-19 02:06:00,1570E-3,5C000400,-0724,0839,12017,030.1,045.5,0.217,750.4,01.17,0.508
2017-02-19 02:07:00,1560E-3,5C000400,-0724,0839,11891,030.1,045.5,0.217,750.4,01.17,0.508
2017-02-19 02:08:00,1793E-3,5C000400,-0724,0840,12174,030.1,045.5,0.217,750.5,01.17,0.508
2017-02-19 02:09:00,1669E-3,5C000400,-0724,0840,12158,030.1,045.5,0.217,750.5,01.17,0.508
2017-02-19 02:10:00,1663E-3,5C000400,-0724,0839,12120,030.1,045.5,0.217,750.4,01.17,0.508
2017-02-19 02:11:00,1616E-3,5C000400,-0724,0839,12119,030.1,045.5,0.217,750.5,01.17,0.508
2017-02-19 02:12:00,1705E-3,5C000400,-0724,0839,11951,030.1,045.5,0.217,750.4,01.17,0.508
2017-02-19 02:13:00,1655E-3,5C000400,-0724,0839,12015,030.1,045.5,0.217,750.4,01.17,0.508
2017-02-19 02:14:00,1697E-3,5C000400,-0724,0839,12066,030.1,045.5,0.217,750.5,01.17,0.508
2017-02-19 02:15:00,1717E-3,5C000400,-0724,0840,12056,030.1,045.5,0.217,750.4,01.17,0.508
2017-02-19 02:16:00,1676E-3,5C000400,-0724,0840,12047,030.1,045.5,0.217,750.5,01.17,0.508
2017-02-19 02:17:00,1616E-3,5C000400,-0724,0839,12153,030.1,045.5,0.217,750.4,01.17,0.508
2017-02-19 02:18:00,1706E-3,5C000400,-0724,0839,12016,030.1,045.5,0.217,750.4,01.17,0.508
2017-02-19 02:19:00,1776E-3,5C000400,-0724,0840,12028,030.1,045.5,0.217,750.4,01.17,0.508
2017-02-19 02:20:00,1700E-3,5C000400,-0724,0840,12052,030.1,045.5,0.217,750.4,01.17,0.508
2017-02-19 02:21:00,1601E-3,5C000400,-0724,0839,12029,030.1,045.5,0.217,750.4,01.17,0.508
2017-02-19 02:22:00,1744E-3,5C000400,-0724,0839,12126,030.1,045.5,0.217,750.4,01.17,0.508
2017-02-19 02:23:00,1540E-3,5C000400,-0724,0839,12015,030.1,045.5,0.217,750.3,01.17,0.508
2017-02-19 02:24:00,1707E-3,5C000400,-0724,0839,12096,030.1,045.5,0.217,750.4,01.17,0.508
2017-02-19 02:25:00,1634E-3,5C000400,-0724,0839,12009,030.1,045.5,0.217,750.4,01.17,0.508
2017-02-19 02:26:00,1612E-3,5C000400,-0724,0840,12103,030.1,045.5,0.217,750.4,01.17,0.508
2017-02-19 02:27:00,1677E-3,5C000400,-0724,0839,12013,030.1,045.5,0.218,750.4,01.17,0.508
2017-02-19 02:28:00,1666E-3,5C000400,-0724,0839,11978,030.1,045.5,0.217,750.4,01.17,0.508
2017-02-19 02:29:00,1715E-3,5C000400,-0724,0839,12007,030.1,045.5,0.217,750.3,01.17,0.508
2017-02-19 02:30:00,1605E-3,5C000400,-0724,0838,11958,030.1,045.5,0.217,750.4,01.17,0.508
2017-02-19 02:31:00,1691E-3,5C000400,-0724,0839,12001,030.1,045.5,0.217,750.4,01.17,0.508
2017-02-19 02:32:00,1585E-3,5C000400,-0724,0839,11955,030.1,045.5,0.217,750.4,01.17,0.508
2017-02-19 02:33:00,1562E-3,5C000400,-0724,0840,12122,030.1,045.5,0.217,750.3,01.17,0.508
2017-02-19 02:34:00,1687E-3,5C000400,-0724,0839,12011,030.1,045.5,0.217,750.2,01.17,0.508
2017-02-19 02:35:00,1652E-3,5C000400,-0724,0839,11919,030.1,045.5,0.218,750.3,01.17,0.508
2017-02-19 02:36:00,1605E-3,5C000400,-0724,0840,12007,030.1,045.5,0.218,750.3,01.17,0.508
2017-02-19 02:37:00,1598E-3,5C000400,-0724,0840,11943,030.1,045.5,0.218,750.2,01.17,0.508
2017-02-19 02:38:00,1679E-3,5C000400,-0724,0840,12082,030.1,045.5,0.217,750.3,01.17,0.508
2017-02-19 02:39:00,1670E-3,5C000400,-0724,0839,12012,030.1,045.5,0.217,750.2,01.17,0.508
2017-02-19 02:40:00,1679E-3,5C000400,-0724,0839,12042,030.1,045.5,0.217,750.1,01.17,0.508
2017-02-19 02:41:00,1587E-3,5C000400,-0724,0839,11836,030.1,045.5,0.217,750.2,01.17,0.508
2017-02-19 02:42:00,1673E-3,5C000400,-0724,0839,12107,030.1,045.5,0.217,750.1,01.17,0.508
2017-02-19 02:43:00,1575E-3,5C000400,-0724,0839,12065,030.1,045.5,0.217,750.1,01.17,0.508
2017-02-19 02:44:00,1603E-3,5C000400,-0724,0839,12197,030.1,045.5,0.217,750.2,01.17,0.508
2017-02-19 02:45:00,1661E-3,5C000400,-0724,0839,12098,030.1,045.5,0.217,750.1,01.17,0.508
2017-02-19 02:46:00,1684E-3,5C000400,-0724,0839,12026,030.1,045.5,0.217,750.2,01.17,0.508
2017-02-19 02:47:00,1531E-3,5C000400,-0724,0839,12018,030.1,045.5,0.217,750.1,01.17,0.508
2017-02-19 02:48:00,1466E-3,5C000400,-0724,0839,12081,030.1,045.5,0.217,749.9,01.17,0.508
2017-02-19 02:49:00,1642E-3,5C000400,-0724,0839,12094,030.1,045.5,0.217,750.2,01.17,0.508
2017-02-19 02:50:00,1665E-3,5C000400,-0724,0839,12086,030.1,045.5,0.217,750.2,01.17,0.508
2017-02-19 02:51:00,1794E-3,5C000400,-0724,0839,12125,030.1,045.5,0.218,750.1,01.17,0.508
2017-02-19 02:52:00,1646E-3,5C000400,-0724,0839,12017,030.1,045.5,0.217,750.3,01.17,0.508
2017-02-19 02:53:00,1714E-3,5C000400,-0724,0839,11958,030.1,045.5,0.217,750.3,01.17,0.508
2017-02-19 02:54:00,1584E-3,5C000400,-0724,0839,11991,030.1,045.5,0.217,750.4,01.17,0.508
2017-02-19 02:55:00,1611E-3,5C000400,-0724,0839,11949,030.1,045.5,0.217,750.4,01.17,0.508
2017-02-19 02:56:00,1553E-3,5C000400,-0724,0839,12118,030.1,045.5,0.217,750.2,01.17,0.508
2017-02-19 02:57:00,1596E-3,5C000400,-0724,0839,11979,030.1,045.5,0.217,750.3,01.17,0.508
2017-02-19 02:58:00,1682E-3,5C000400,-0724,0839,12059,030.1,045.5,0.217,750.3,01.17,0.508
2017-02-19 02:59:00,1639E-3,5C000400,-0724,0839,11989,030.1,045.5,0.217,750.3,01.17,0.508
2017-02-19 03:00:00,1639E-3,5C000400,-0724,0838,12077,030.1,045.5,0.217,750.3,01.17,0.508
2017-02-19 03:01:00,1541E-3,5C000400,-0724,0839,11987,030.1,045.5,0.217,750.2,01.17,0.508
2017-02-19 03:02:00,1639E-3,5C000400,-0724,0839,12075,030.1,045.5,0.217,750.4,01.17,0.508
2017-02-19 03:03:00,1521E-3,5C000400,-0724,0839,12039,030.1,045.5,0.217,750.2,01.17,0.508
2017-02-19 03:04:00,1715E-3,5C000400,-0724,0839,12001,030.1,045.5,0.217,750.3,01.17,0.508
2017-02-19 03:05:00,1655E-3,5C000400,-0724,0839,11822,030.1,045.5,0.217,750.3,01.17,0.508
2017-02-19 03:06:00,1675E-3,5C000400,-0724,0839,12041,030.1,045.5,0.218,750.3,01.17,0.508
2017-02-19 03:07:00,1695E-3,5C000400,-0724,0840,11964,030.1,045.5,0.217,750.3,01.17,0.508
2017-02-19 03:08:00,1680E-3,5C000400,-0724,0839,12099,030.1,045.5,0.217,750.3,01.17,0.508
2017-02-19 03:09:00,1629E-3,5C000400,-0724,0839,11927,030.1,045.5,0.217,750.2,01.17,0.508
2017-02-19 03:10:00,1695E-3,5C000400,-0724,0839,12053,030.1,045.5,0.217,750.3,01.17,0.508
2017-02-19 03:11:00,1615E-3,5C000400,-0724,0840,11833,030.1,045.5,0.217,750.3,01.17,0.508
2017-02-19 03:12:00,1669E-3,5C000400,-0724,0839,11914,030.1,045.5,0.217,750.4,01.17,0.508
2017-02-19 03:13:00,1723E-3,5C000400,-0724,0839,12000,030.1,045.5,0.217,750.4,01.17,0.508
2017-02-19 03:14:00,1689E-3,5C000400,-0724,0839,12104,030.1,045.5,0.217,750.3,01.17,0.508
2017-02-19 03:15:00,1763E-3,5C000400,-0724,0838,12038,030.1,045.5,0.217,750.2,01.17,0.508
2017-02-19 03:16:00,1709E-3,5C000400,-0724,0839,11932,030.1,045.5,0.218,750.2,01.17,0.508
2017-02-19 03:17:00,1487E-3,5C000400,-0724,0839,11973,030.1,045.5,0.217,750.2,01.17,0.508
2017-02-19 03:18:00,1712E-3,5C000400,-0724,0839,12052,030.1,045.5,0.217,750.2,01.17,0.508
2017-02-19 03:19:00,1706E-3,5C000400,-0724,0838,12123,030.1,045.5,0.217,750.3,01.17,0.508
2017-02-19 03:20:00,1564E-3,5C000400,-0724,0839,11780,030.1,045.5,0.217,750.2,01.17,0.508
2017-02-19 03:21:00,1722E-3,5C000400,-0724,0839,12107,030.1,045.5,0.217,750.1,01.17,0.508
2017-02-19 03:22:00,1545E-3,5C000400,-0724,0839,12169,030.1,045.5,0.217,750.2,01.17,0.508
2017-02-19 03:23:00,1632E-3,5C000400,-0724,0839,12095,030.1,045.5,0.217,750.2,01.17,0.508
2017-02-19 03:24:00,1573E-3,5C000400,-0724,0839,12015,030.1,045.5,0.218,750.2,01.17,0.508
2017-02-19 03:25:00,1766E-3,5C000400,-0724,0840,11911,030.1,045.5,0.217,750.2,01.17,0.508
2017-02-19 03:26:00,1672E-3,5C000400,-0724,0839,12025,030.1,045.5,0.217,750.1,01.17,0.508
2017-02-19 03:27:00,1500E-3,5C000400,-0724,0839,12059,030.1,045.5,0.217,750.2,01.17,0.508
2017-02-19 03:28:00,1682E-3,5C000400,-0724,0840,11892,030.1,045.5,0.217,750.0,01.17,0.508
2017-02-19 03:29:00,1774E-3,5C000400,-0724,0839,12056,030.1,045.5,0.218,750.2,01.17,0.508
2017-02-19 03:30:00,1590E-3,5C000400,-0724,0839,12105,030.1,045.5,0.217,750.1,01.17,0.508
2017-02-19 03:31:00,1711E-3,5C000400,-0724,0839,12174,030.1,045.5,0.217,750.2,01.17,0.508
2017-02-19 03:32:00,1761E-3,5C000400,-0724,0839,12078,030.1,045.5,0.217,750.3,01.17,0.508
2017-02-19 03:33:00,1654E-3,5C000400,-0724,0839,12169,030.1,045.5,0.217,750.3,01.17,0.508
2017-02-19 03:34:00,1822E-3,5C000400,-0724,0839,12083,030.1,045.5,0.218,750.4,01.17,0.508
2017-02-19 03:35:00,1589E-3,5C000400,-0724,0840,12096,030.1,045.5,0.217,750.4,01.17,0.508
2017-02-19 03:36:00,1602E-3,5C000400,-0724,0839,11961,030.1,045.5,0.218,750.3,01.17,0.508
2017-02-19 03:37:00,1649E-3,5C000400,-0724,0840,12091,030.1,045.5,0.217,750.4,01.17,0.508
2017-02-19 03:38:00,1813E-3,5C000400,-0724,0839,11947,030.1,045.5,0.217,750.4,01.17,0.508
2017-02-19 03:39:00,1621E-3,5C000400,-0724,0839,12089,030.1,045.5,0.217,750.4,01.17,0.508
2017-02-19 03:40:00,1598E-3,5C000400,-0724,0840,12082,030.1,045.5,0.217,750.4,01.17,0.508
2017-02-19 03:41:00,1647E-3,5C000400,-0724,0839,11943,030.1,045.5,0.217,750.4,01.17,0.508
2017-02-19 03:42:00,1731E-3,5C000400,-0724,0839,11921,030.2,045.5,0.217,750.3,01.17,0.508
2017-02-19 03:43:00,1606E-3,5C000400,-0724,0839,12024,030.2,045.5,0.217,750.4,01.17,0.508
2017-02-19 03:44:00,1661E-3,5C000400,-0724,0840,12061,030.2,045.5,0.217,750.3,01.17,0.508
2017-02-19 03:45:00,1715E-3,5C000400,-0724,0839,12044,030.2,045.5,0.217,750.3,01.17,0.508
2017-02-19 03:46:00,1630E-3,5C000400,-0724,0839,12055,030.2,045.5,0.217,750.3,01.17,0.508
2017-02-19 03:47:00,1596E-3,5C000400,-0724,0839,12022,030.2,045.5,0.217,750.3,01.17,0.508
2017-02-19 03:48:00,1630E-3,5C000400,-0724,0839,12013,030.2,045.5,0.217,750.2,01.17,0.508
2017-02-19 03:49:00,1638E-3,5C000400,-0724,0839,11985,030.2,045.5,0.217,750.2,01.17,0.508
2017-02-19 03:50:00,1543E-3,5C000400,-0724,0839,12127,030.2,045.5,0.217,750.2,01.17,0.508
2017-02-19 03:51:00,1568E-3,5C000400,-0724,0840,12116,030.2,045.5,0.217,750.2,01.17,0.508
2017-02-19 03:52:00,1641E-3,5C000400,-0724,0839,11991,030.2,045.5,0.217,750.2,01.17,0.508
2017-02-19 03:53:00,1594E-3,5C000400,-0724,0839,12009,030.2,045.5,0.217,750.2,01.17,0.508
2017-02-19 03:54:00,1568E-3,5C000400,-0724,0839,12061,030.2,045.5,0.217,750.3,01.17,0.508
2017-02-19 03:55:00,1644E-3,5C000400,-0724,0838,12045,030.2,045.5,0.217,750.3,01.17,0.508
2017-02-19 03:56:00,1641E-3,5C000400,-0724,0840,12039,030.2,045.5,0.217,750.3,01.17,0.508
2017-02-19 03:57:00,1676E-3,5C000400,-0724,0840,12026,030.2,045.5,0.217,750.1,01.17,0.508
2017-02-19 03:58:00,1644E-3,5C000400,-0724,0839,12006,030.2,045.5,0.217,750.1,01.17,0.508
2017-02-19 03:59:00,1735E-3,5C000400,-0724,0839,11956,030.2,045.5,0.218,750.2,01.17,0.508
2017-02-19 04:00:00,1692E-3,5C000400,-0724,0840,12084,030.2,045.5,0.217,750.1,01.17,0.508
2017-02-19 04:01:00,1719E-3,5C000400,-0724,0839,12115,030.2,045.5,0.217,750.2,01.17,0.508
2017-02-19 04:02:00,1648E-3,5C000400,-0724,0839,12092,030.2,045.5,0.217,750.2,01.17,0.508
2017-02-19 04:03:00,1790E-3,5C000400,-0724,0839,12082,030.2,045.5,0.217,750.2,01.17,0.508
2017-02-19 04:04:00,1692E-3,5C000400,-0724,0840,11993,030.2,045.5,0.217,750.2,01.17,0.508
2017-02-19 04:05:00,1711E-3,5C000400,-0724,0839,12048,030.2,045.5,0.217,750.2,01.17,0.508
2017-02-19 04:06:00,1640E-3,5C000400,-0724,0839,12053,030.2,045.5,0.217,750.3,01.17,0.508
2017-02-19 04:07:00,1695E-3,5C000400,-0724,0839,12007,030.2,045.5,0.217,750.3,01.17,0.508
2017-02-19 04:08:00,1613E-3,5C000400,-0724,0839,11918,030.2,045.5,0.217,750.3,01.17,0.508
2017-02-19 04:09:00,1714E-3,5C000400,-0724,0839,12083,030.2,045.5,0.217,750.3,01.17,0.508
2017-02-19 04:10:00,1649E-3,5C000400,-0724,0839,12086,030.2,045.5,0.217,750.3,01.17,0.508
2017-02-19 04:11:00,1644E-3,5C000400,-0724,0839,12066,030.2,045.5,0.217,750.3,01.17,0.508
2017-02-19 04:12:00,1662E-3,5C000400,-0724,0839,11973,030.2,045.5,0.217,750.3,01.17,0.508
2017-02-19 04:13:00,1678E-3,5C000400,-0724,0839,11894,030.2,045.5,0.217,750.3,01.17,0.508
2017-02-19 04:14:00,1636E-3,5C000400,-0724,0839,12056,030.2,045.5,0.217,750.3,01.17,0.508
2017-02-19 04:15:00,1658E-3,5C000400,-0724,0840,12007,030.2,045.5,0.217,750.3,01.17,0.508
2017-02-19 04:16:00,1660E-3,5C000400,-0724,0839,11959,030.2,045.5,0.217,750.3,01.17,0.508
2017-02-19 04:17:00,1809E-3,5C000400,-0724,0840,11957,030.2,045.5,0.217,750.3,01.17,0.508
2017-02-19 04:18:00,1662E-3,5C000400,-0724,0839,11944,030.2,045.5,0.217,750.4,01.17,0.508
2017-02-19 04:19:00,1637E-3,5C000400,-0724,0839,11948,030.2,045.5,0.217,750.4,01.17,0.508
2017-02-19 04:20:00,1590E-3,5C000400,-0724,0839,11975,030.2,045.5,0.217,750.4,01.17,0.508